Content
SEND FEEDBACK

Daily
Averages
Monthly
Summary
United States of America

DRAYTON, SOUTH CAROLINA


Home > North America > United States > South Carolina
Elevation: 256 meters     Latitude: 34 59N     Longitude: 081 53W

WEATHER
 
SELECT A DAY
Number of Records: 136,582;   Date Range: 2/9/98 - 11/24/14
 
SHARE

PRINT THIS DATA

[ ← Previous Day ]
WEATHER ALMANAC - 31 JANUARY, 2013
[ Next Day → ]
[ °F ]   °C
Weather ElementAverageHighLow
Temperature7.3 °C11 °C (2:35 pm)3 °C (6:55 am)
Dewpoint-2.2 °C8 °C (12:35 am)-7 °C (4:15 pm)
Humidity53.7 %87 % (12:35 am)28 % (4:15 pm)
Barometer1012.9 hPa1017.9 hPa (9:55 pm)1002.4 hPa (12:35 am)
Wind Speed21.7 km/h31.5 km/h (1:35 am)
Wind Gust50.1 km/h (3:35 am)
Weather ElementAverage
Visibility16.1 km
Wind DirectionWSW (251.6 °)

Weather ElementTotal
Precipitation---
Heating Degree Days11.3 (Base 18.3)
Averaged from 70 records on 31 January, 2013
WEATHER CONDITIONS BREAKOUT
WIND DIRECTION BREAKOUT
WEATHER BY HOUR - 31 JANUARY, 2013
[ °F ]   °C
Local TimeTemperatureDewpointHumidityBarometerVisibilityWind DirectionWind SpeedGust SpeedPrecipitationEventsConditions
12:35 AM10 °C8 °C87 %1002.4 hPa16.1 kmSW (230°)24.1 km/h38.9 km/hMostly Cloudy
12:55 AM10 °C7 °C82 %1002.7 hPa16.1 kmSW (230°)22.2 km/h44.4 km/hScattered Clouds
1:15 AM10 °C7 °C82 %1002.7 hPa16.1 kmSW (230°)27.8 km/h44.4 km/hMostly Cloudy
1:35 AM10 °C7 °C82 %1003 hPa16.1 kmWSW (250°)31.5 km/h40.7 km/hScattered Clouds
1:55 AM10 °C6 °C76 %1003.7 hPa16.1 kmWSW (240°)29.6 km/h48.1 km/hScattered Clouds
2:15 AM9 °C6 °C82 %1004.1 hPa16.1 kmWSW (250°)25.9 km/h46.3 km/hScattered Clouds
2:35 AM8 °C4 °C76 %1004.4 hPa16.1 kmWSW (250°)27.8 km/h40.7 km/hClear
2:55 AM8 °C3 °C71 %1005.1 hPa16.1 kmWSW (240°)25.9 km/h40.7 km/hClear
3:15 AM7 °C3 °C76 %1005.4 hPa16.1 kmWSW (250°)29.6 km/h38.9 km/hClear
3:35 AM7 °C2 °C71 %1005.8 hPa16.1 kmWSW (250°)27.8 km/h50.1 km/hClear
3:55 AM7 °C2 °C71 %1006.4 hPa16.1 kmWSW (250°)25.9 km/h46.3 km/hClear
4:15 AM6 °C2 °C76 %1007.5 hPa16.1 kmWest (260°)24.1 km/h44.4 km/hScattered Clouds
4:35 AM6 °C2 °C76 %1007.5 hPa16.1 kmWSW (250°)24.1 km/h38.9 km/hScattered Clouds
4:55 AM6 °C1 °C70 %1008.1 hPa16.1 kmWest (260°)29.6 km/h37 km/hClear
5:15 AM5 °C0 °C70 %1008.1 hPa16.1 kmWSW (250°)22.2 km/h38.9 km/hClear
5:35 AM5 °C0 °C70 %1008.8 hPa16.1 kmWSW (250°)22.2 km/h33.3 km/hClear
6:15 AM4 °C-1 °C70 %1009.8 hPa16.1 kmWest (270°)14.8 km/hClear
6:35 AM4 °C-1 °C70 %1010.2 hPa16.1 kmWest (270°)22.2 km/h31.5 km/hClear
6:55 AM3 °C-1 °C75 %1010.8 hPa16.1 kmWest (260°)18.5 km/hClear
7:15 AM3 °C-2 °C70 %1011.5 hPa16.1 kmWest (260°)22.2 km/h35.2 km/hClear
7:35 AM3 °C-2 °C70 %1011.9 hPa16.1 kmWest (260°)18.5 km/hClear
7:55 AM3 °C-2 °C70 %1012.2 hPa16.1 kmWest (260°)16.7 km/hClear
8:15 AM4 °C-2 °C65 %1012.5 hPa16.1 kmWest (260°)20.4 km/h27.8 km/hClear
8:35 AM5 °C-3 °C57 %1012.9 hPa16.1 kmWest (260°)20.4 km/h29.6 km/hClear
8:55 AM5 °C-2 °C61 %1013.5 hPa16.1 kmWSW (250°)24.1 km/h29.6 km/hClear
9:15 AM5 °C-2 °C61 %1013.2 hPa16.1 kmWest (260°)16.7 km/h29.6 km/hClear
9:35 AM5 °C-3 °C57 %1013.9 hPa16.1 kmWest (260°)22.2 km/h33.3 km/hClear
9:55 AM6 °C-2 °C57 %1013.9 hPa16.1 kmWSW (250°)27.8 km/h35.2 km/hClear
10:15 AM6 °C-3 °C53 %1014.2 hPa16.1 kmWest (260°)27.8 km/h37 km/hClear
10:35 AM7 °C-3 °C49 %1014.6 hPa16.1 kmWSW (250°)20.4 km/h35.2 km/hClear
10:55 AM7 °C-3 °C49 %1014.6 hPa16.1 kmWSW (250°)25.9 km/h35.2 km/hClear
11:15 AM7 °C-3 °C49 %1014.6 hPa16.1 kmWSW (250°)29.6 km/h38.9 km/hClear
11:35 AM8 °C-3 °C46 %1014.6 hPa16.1 kmWest (260°)25.9 km/h31.5 km/hClear
11:55 AM8 °C-3 °C46 %1014.6 hPa16.1 kmWSW (250°)16.7 km/h31.5 km/hClear
12:15 PM8 °C-3 °C46 %1014.2 hPa16.1 kmWSW (250°)20.4 km/h31.5 km/hClear
12:35 PM9 °C-3 °C43 %1014.2 hPa16.1 kmWSW (250°)29.6 km/h38.9 km/hClear
12:55 PM9 °C-3 °C43 %1014.2 hPa16.1 kmWest (260°)25.9 km/h35.2 km/hClear
1:15 PM9 °C-4 °C40 %1014.2 hPa16.1 kmWest (260°)22.2 km/h38.9 km/hClear
1:35 PM10 °C-4 °C37 %1013.9 hPa16.1 kmWSW (250°)29.6 km/h38.9 km/hClear
1:55 PM10 °C-5 °C35 %1013.9 hPa16.1 kmWSW (250°)25.9 km/h42.6 km/hClear
2:15 PM10 °C-4 °C37 %1013.9 hPa16.1 kmWSW (250°)22.2 km/h40.7 km/hClear
2:35 PM11 °C-4 °C35 %1013.9 hPa16.1 kmWSW (250°)29.6 km/h40.7 km/hClear
2:55 PM11 °C-4 °C35 %1014.2 hPa16.1 kmWest (270°)24.1 km/h42.6 km/hClear
3:15 PM11 °C-5 °C33 %1014.6 hPa16.1 kmSW (230°)24.1 km/h37 km/hClear
3:35 PM11 °C-5 °C33 %1014.6 hPa16.1 kmWest (270°)22.2 km/h38.9 km/hClear
3:55 PM11 °C-6 °C30 %1014.9 hPa16.1 kmWest (280°)31.5 km/h46.3 km/hClear
4:15 PM11 °C-7 °C28 %1015.2 hPa16.1 kmWNW (300°)27.8 km/h40.7 km/hClear
4:35 PM11 °C-6 °C30 %1014.9 hPa16.1 kmWest (260°)25.9 km/h35.2 km/hClear
4:55 PM11 °C-7 °C28 %1015.2 hPa16.1 kmWest (280°)24.1 km/h33.3 km/hClear
5:15 PM10 °C-7 °C30 %1015.2 hPa16.1 kmWest (280°)20.4 km/h31.5 km/hClear
5:35 PM10 °C-6 °C32 %1015.6 hPa16.1 kmWest (270°)22.2 km/h27.8 km/hClear
5:55 PM9 °C-7 °C32 %1015.6 hPa16.1 kmWest (270°)20.4 km/h33.3 km/hClear
6:15 PM8 °C-6 °C37 %1015.6 hPa16.1 kmWest (260°)13 km/h25.9 km/hClear
6:35 PM8 °C-6 °C37 %1015.9 hPa16.1 kmWest (270°)16.7 km/hClear
6:55 PM7 °C-6 °C39 %1016.3 hPa16.1 kmWSW (240°)9.3 km/h16.7 km/hClear
7:15 PM7 °C-5 °C43 %1016.6 hPa16.1 kmSW (230°)14.8 km/hClear
7:35 PM7 °C-5 °C43 %1016.6 hPa16.1 kmSW (230°)11.1 km/hClear
7:55 PM6 °C-5 °C46 %1016.9 hPa16.1 kmWSW (240°)9.3 km/hClear
8:15 PM6 °C-5 °C46 %1016.9 hPa16.1 kmWSW (240°)13 km/hClear
8:35 PM6 °C-5 °C46 %1016.9 hPa16.1 kmWSW (240°)14.8 km/hClear
8:55 PM6 °C-5 °C46 %1016.9 hPa16.1 kmWSW (240°)14.8 km/h25.9 km/hClear
9:15 PM6 °C-5 °C46 %1017.3 hPa16.1 kmWSW (240°)18.5 km/hClear
9:35 PM6 °C-4 °C49 %1017.6 hPa16.1 kmWSW (240°)16.7 km/hClear
9:55 PM6 °C-4 °C49 %1017.9 hPa16.1 kmWSW (240°)14.8 km/hClear
10:15 PM6 °C-4 °C49 %1017.9 hPa16.1 kmSW (220°)11.1 km/hClear
10:35 PM6 °C-4 °C49 %1017.9 hPa16.1 kmSW (230°)16.7 km/hClear
10:55 PM6 °C-4 °C49 %1017.9 hPa16.1 kmSW (230°)14.8 km/hClear
11:15 PM5 °C-3 °C57 %1017.6 hPa16.1 kmWSW (240°)18.5 km/hClear
11:35 PM6 °C-3 °C53 %1017.6 hPa16.1 kmWSW (240°)16.7 km/h25.9 km/hClear
11:55 PM6 °C-3 °C53 %1017.6 hPa16.1 kmSW (230°)14.8 km/h25.9 km/hClear
Hourly data recorded from KSPA, located 0 kilometers away from Drayton, South Carolina







STORIES FROM OUR PARTNERS